FW2278 Weather Reports


time (UTC)temp
C
wind
direction
speed
KPH
gust
KPH
rain 1hr
cm
rain 24hr
cm
rain mn
cm
humidity
%
barometer
mb
20260503202804 15 52 0.0 0.0 0.00 0.00 0.00 95 1017.8
20260503202304 15 52 0.0 0.0 0.00 0.00 0.00 95 1017.8
20260503201804 15 52 0.0 0.0 0.00 0.00 0.00 95 1017.8
20260503201304 15 52 0.0 0.0 0.00 0.00 0.00 95 1017.7
20260503200803 15 52 0.0 0.0 0.00 0.00 0.00 95 1017.7
20260503200304 15 52 0.0 0.0 0.00 0.00 0.00 95 1017.7
20260503195304 15 52 0.0 0.0 0.00 0.00 0.00 95 1017.6
20260503194804 15 52 0.0 0.0 0.00 0.00 0.00 95 1017.5
20260503194304 15 52 0.0 0.0 0.00 0.00 0.00 95 1017.4
20260503193303 15 52 0.0 0.0 0.00 0.00 0.00 95 1017.4
20260503192804 15 52 0.0 0.0 0.00 0.00 0.00 95 1017.5
20260503192305 15 52 0.0 0.0 0.00 0.00 0.00 95 1017.4
20260503191304 15 52 0.0 0.0 0.00 0.00 0.00 95 1017.4
20260503190304 15 52 0.0 0.0 0.00 0.00 0.00 95 1017.5
20260503185804 15 52 0.0 0.0 0.00 0.00 0.00 95 1017.4
20260503184804 14 52 0.0 0.0 0.00 0.00 0.00 95 1017.5
20260503183304 14 52 0.0 0.0 0.00 0.00 0.00 95 1017.5
20260503182804 14 52 0.0 0.0 0.00 0.00 0.00 95 1017.5
20260503181804 14 52 0.0 0.0 0.00 0.00 0.00 95 1017.5
20260503181304 14 52 0.0 0.0 0.00 0.00 0.00 95 1017.5
20260503180804 14 52 0.0 0.0 0.00 0.00 0.00 95 1017.5
20260503180304 14 52 0.0 0.0 0.00 0.00 0.00 95 1017.4
20260503175804 14 52 0.0 0.0 0.00 0.00 0.00 95 1017.3
20260503174304 14 52 0.0 0.0 0.00 0.00 0.00 95 1017.4
20260503173804 14 52 0.0 0.0 0.00 0.00 0.00 95 1017.5
20260503173304 14 52 0.0 0.0 0.00 0.00 0.00 95 1017.5
20260503172804 14 52 0.0 0.0 0.00 0.00 0.00 95 1017.5
20260503172305 14 52 0.0 0.0 0.00 0.00 0.00 95 1017.5
20260503171804 14 52 0.0 0.0 0.00 0.00 0.00 94 1017.6
20260503171303 14 52 0.0 0.0 0.00 0.00 0.00 94 1017.6
20260503170804 14 52 0.0 0.0 0.00 0.00 0.00 94 1017.7
20260503170304 14 52 0.0 0.0 0.00 0.00 0.00 94 1017.7
20260503150304 15 52 0.0 0.0 0.00 0.00 0.00 93 1018.6
20260503131303 16 52 0.0 0.0 0.00 0.00 0.00 92 1019.7
20260503110803 18 52 0.0 0.0 0.00 0.00 0.00 89 1020.1
20260503110304 18 52 0.0 0.0 0.00 0.00 0.00 89 1020.1
20260503090304 21 69 0.0 0.0 0.00 0.00 0.00 81 1019.8
20260503081304 22 60 0.0 0.0 0.00 0.00 0.00 78 1019.6
20260503080804 22 51 0.0 0.0 0.00 0.00 0.00 77 1019.6
20260503080304 22 53 0.0 0.0 0.00 0.00 0.00 77 1019.6
20260503072804 22 42 8.0 16.1 0.00 0.00 0.00 75 1019.5
20260503072305 22 51 8.0 22.5 0.00 0.00 0.00 74 1019.5
20260503071804 23 60 8.0 16.1 0.00 0.00 0.00 74 1019.4
20260503070803 23 40 3.2 16.1 0.00 0.00 0.00 74 1019.4
20260503070304 23 46 4.8 19.3 0.00 0.00 0.00 74 1019.4
20260503060304 25 70 8.0 16.1 0.00 0.00 0.00 68 1019.3
20260503054304 25 73 8.0 12.9 0.00 0.00 0.00 67 1019.3
20260503053804 25 84 12.9 22.5 0.00 0.00 0.00 66 1019.3
20260503053304 25 49 8.0 14.5 0.00 0.00 0.00 65 1019.4
20260503051804 25 92 8.0 19.3 0.00 0.00 0.00 62 1019.5
20260503050803 26 88 9.7 19.3 0.00 0.00 0.00 61 1019.6
20260503050303 26 37 8.0 16.1 0.00 0.00 0.00 58 1019.6
20260503045805 26 44 0.0 9.7 0.00 0.00 0.00 57 1019.7
20260503044804 26 60 8.0 14.5 0.00 0.00 0.00 57 1019.7
20260503043804 26 51 6.4 14.5 0.00 0.00 0.00 56 1019.9
20260503043304 25 69 9.7 16.1 0.00 0.00 0.00 56 1019.9
20260503042804 25 63 4.8 11.3 0.00 0.00 0.00 57 1019.8
20260503042305 25 45 6.4 14.5 0.00 0.00 0.00 56 1020.0
20260503041804 26 44 4.8 9.7 0.00 0.00 0.00 55 1020.0
20260503041303 26 42 3.2 9.7 0.00 0.00 0.00 55 1020.0
20260503040304 26 51 3.2 8.0 0.00 0.00 0.00 55 1020.1
20260503035804 26 43 0.0 0.0 0.00 0.00 0.00 54 1020.2
20260503035305 26 46 0.0 9.7 0.00 0.00 0.00 54 1020.2
20260503033304 26 80 1.6 4.8 0.00 0.00 0.00 56 1020.4
20260503032804 26 73 6.4 14.5 0.00 0.00 0.00 55 1020.5
20260503032304 26 60 4.8 11.3 0.00 0.00 0.00 54 1020.6
20260503030804 26 26 1.6 11.3 0.00 0.00 0.00 54 1020.7
20260503030304 26 353 3.2 12.9 0.00 0.00 0.00 55 1020.7
20260503025803 26 24 4.8 12.9 0.00 0.00 0.00 54 1020.9
20260503025305 26 0 1.6 11.3 0.00 0.00 0.00 57 1021.0
20260503024804 26 63 3.2 11.3 0.00 0.00 0.00 57 1021.1
20260503024304 26 333 0.0 0.0 0.00 0.00 0.00 58 1021.2
20260503023803 26 9 0.0 0.0 0.00 0.00 0.00 56 1021.3
20260503022804 26 12 0.0 0.0 0.00 0.00 0.00 57 1021.4
20260503022305 25 355 0.0 0.0 0.00 0.00 0.00 59 1021.5
20260503021304 25 355 0.0 0.0 0.00 0.00 0.00 59 1021.7
20260503020304 25 31 0.0 0.0 0.00 0.00 0.00 60 1021.9
20260503015804 25 344 0.0 0.0 0.00 0.00 0.00 60 1022.2
20260503015305 25 337 0.0 0.0 0.00 0.00 0.00 60 1022.3
20260503014804 25 337 0.0 3.2 0.00 0.00 0.00 61 1022.4
20260503013304 24 13 3.2 12.9 0.00 0.00 0.00 63 1022.6
20260503012305 24 337 0.0 0.0 0.00 0.00 0.00 63 1022.8
20260503011803 24 338 0.0 0.0 0.00 0.00 0.00 63 1022.9
20260503010803 23 33 0.0 4.8 0.00 0.00 0.00 64 1023.0
20260503010304 23 34 1.6 12.9 0.00 0.00 0.00 65 1023.1
20260503005804 23 319 0.0 4.8 0.00 0.00 0.00 65 1023.1
20260503005304 23 319 1.6 8.0 0.00 0.00 0.00 67 1023.3
20260503004804 23 40 4.8 16.1 0.00 0.00 0.00 67 1023.3
20260503004304 23 11 4.8 9.7 0.00 0.00 0.00 68 1023.3
20260503003304 22 327 3.2 8.0 0.00 0.00 0.00 70 1023.5
20260503002805 22 333 1.6 8.0 0.00 0.00 0.00 70 1023.5
20260503002305 22 333 3.2 8.0 0.00 0.00 0.00 70 1023.5
20260503001304 22 310 1.6 4.8 0.00 0.00 0.00 73 1023.6
20260503000804 22 319 3.2 9.7 0.00 0.00 0.00 74 1023.7
20260503000304 21 324 3.2 9.7 0.00 0.00 0.00 76 1023.7
20260502235305 21 28 0.0 0.0 0.00 0.00 0.00 77 1023.6
20260502234303 21 30 0.0 0.0 0.00 0.00 0.00 79 1023.6
20260502232804 20 28 0.0 0.0 0.00 0.00 0.00 85 1024.0
20260502232305 20 28 0.0 0.0 0.00 0.00 0.00 87 1024.1
20260502231804 19 27 0.0 9.7 0.00 0.00 0.00 91 1024.1
20260502231304 18 63 0.0 0.0 0.00 0.00 0.00 94 1024.2
20260502230304 18 63 0.0 0.0 0.00 0.00 0.00 96 1024.2
20260502225304 17 63 0.0 0.0 0.00 0.00 0.00 96 1024.4
20260502224803 17 63 0.0 0.0 0.00 0.00 0.00 96 1024.4
20260502224304 17 63 0.0 0.0 0.00 0.00 0.00 96 1024.5
20260502223304 16 63 0.0 0.0 0.00 0.00 0.00 96 1024.6
20260502222804 15 63 0.0 0.0 0.00 0.00 0.00 96 1024.6
20260502222305 15 63 0.0 0.0 0.00 0.00 0.00 96 1024.3
20260502221304 15 63 0.0 0.0 0.00 0.00 0.00 96 1024.4
20260502220804 14 63 0.0 0.0 0.00 0.00 0.00 96 1024.4
20260502220304 14 63 0.0 0.0 0.00 0.00 0.00 96 1024.2
20260502215305 13 63 0.0 0.0 0.00 0.00 0.00 96 1023.9
20260502213804 13 63 0.0 0.0 0.00 0.00 0.00 95 1023.9
20260502213304 13 63 0.0 0.0 0.00 0.00 0.00 95 1023.8
20260502212305 13 63 0.0 0.0 0.00 0.00 0.00 95 1023.6
20260502211804 13 63 0.0 0.0 0.00 0.00 0.00 95 1023.6
20260502211304 13 63 0.0 0.0 0.00 0.00 0.00 95 1023.7
20260502210804 12 63 0.0 0.0 0.00 0.00 0.00 95 1023.8
20260502210304 12 63 0.0 0.0 0.00 0.00 0.00 95 1023.8
20260502205803 12 63 0.0 0.0 0.00 0.00 0.00 95 1023.7
20260502205305 12 63 0.0 0.0 0.00 0.00 0.00 95 1023.7
20260502204304 12 63 0.0 0.0 0.00 0.00 0.00 95 1023.7
20260502203304 12 63 0.0 0.0 0.00 0.00 0.00 95 1023.6